Content
SEND FEEDBACK

Daily
Averages
Monthly
Summary
United States of America

TAMUNING, GUAM


Home > North America > United States > Guam
Elevation: 250 feet     Latitude: 13 29N     Longitude: 144 47E

WEATHER
 
SELECT A DAY
Number of Records: 342,038;   Date Range: 1/1/95 - 7/29/14
 
SHARE

PRINT THIS DATA

[ ← Previous Day ]
WEATHER ALMANAC - JANUARY 25, 2014
[ Next Day → ]
[ °C ]   °F
Weather ElementAverageHighLow
Temperature78.2 °F83.1 °F (9:58 am)75.2 °F (8:48 am)
Dewpoint72.5 °F79.5 °F (9:58 am) (7:00 pm)
Humidity88.9 %100 % (4:18 am)83 % (7:31 am)
Barometer29.68 in29.73 in (8:35 am)29.61 in (2:58 pm)
Wind Speed8.2 mph13.8 mph (3:23 am)
Wind Gust21.9 mph (8:35 am)
Weather ElementAverage
Visibility8.4 mi
Wind DirectionSSW (215.8 °)

Weather ElementTotal
Precipitation0.93 in
Cooling Degree Days14.2 (Base 65)
Growing Degree Days29.2 (Base 50)
Averaged from 106 records on January 25, 2014
WEATHER CONDITIONS BREAKOUT
WIND DIRECTION BREAKOUT
WEATHER BY HOUR - JANUARY 25, 2014
[ °C ]   °F
Local TimeTemperatureDewpointHumidityBarometerVisibilityWind DirectionWind SpeedGust SpeedPrecipitationEventsConditions
1:58 AM77.0 °F73.4 °F89 %29.65 in10.0 miSouth (180°)10.4 mphClear
2:28 AM77.0 °F73.4 °F89 %29.67 in10.0 miSouth (190°)9.2 mphMostly Cloudy
2:58 AM77.0 °F73.4 °F89 %29.64 in10.0 miSouth (190°)10.4 mphMostly Cloudy
3:08 AM77.0 °F73.4 °F89 %29.67 in10.0 miSouth (190°)10.4 mphMostly Cloudy
3:18 AM77.0 °F73.4 °F89 %29.67 in10.0 miSouth (180°)10.4 mphScattered Clouds
3:23 AM77.0 °F73.4 °F89 %29.66 in10.0 miSouth (170°)13.8 mphScattered Clouds
3:28 AM77.0 °F73.4 °F89 %29.66 in10.0 miSouth (170°)12.7 mphScattered Clouds
3:38 AM77.0 °F73.4 °F89 %29.66 in10.0 miSouth (180°)12.7 mphMostly Cloudy
3:48 AM77.0 °F73.4 °F89 %29.66 in10.0 miSouth (180°)12.7 mphScattered Clouds
3:58 AM77.0 °F73.4 °F89 %29.63 in10.0 miSouth (190°)12.7 mphMostly Cloudy
4:18 AM77.0 °F77.0 °F100 %29.66 in10.0 miSSW (200°)8.1 mphMostly Cloudy
4:53 AM77.0 °F0.0 °F29.66 in10.0 miSouth (190°)9.2 mphMostly Cloudy
4:58 AM77.0 °F73.4 °F89 %29.63 in10.0 miSouth (190°)9.2 mphScattered Clouds
5:03 AM77.0 °F73.4 °F89 %29.66 in10.0 miSouth (190°)10.4 mphRainLight Rain
5:12 AM77.0 °F73.4 °F89 %29.66 in10.0 miSouth (190°)10.4 mphMostly Cloudy
5:35 AM77.0 °F73.4 °F89 %29.67 in10.0 miSouth (190°)9.2 mphRainLight Rain
5:45 AM77.0 °F73.4 °F89 %29.67 in10.0 miSSW (200°)9.2 mphOvercast
5:58 AM77.0 °F73.4 °F89 %29.65 in10.0 miSSW (200°)8.1 mph0.00 inMostly Cloudy
6:03 AM77.0 °F73.4 °F89 %29.68 in10.0 miSSW (200°)8.1 mphMostly Cloudy
6:08 AM77.0 °F73.4 °F89 %29.68 in10.0 miSSW (200°)6.9 mphScattered Clouds
6:53 AM77.0 °F73.4 °F89 %29.69 in10.0 miSouth (190°)11.5 mphMostly Cloudy
6:58 AM77.0 °F0.0 °F29.66 in10.0 miSouth (190°)10.4 mphMostly Cloudy
7:31 AM78.8 °F73.4 °F83 %29.71 in10.0 miSouth (180°)9.2 mphLight Drizzle
7:36 AM78.8 °F0.0 °F29.71 in5.0 miSSW (210°)6.9 mphRainRain
7:41 AM77.0 °F73.4 °F89 %29.71 in5.0 miSSW (200°)4.6 mphRainLight Rain
7:51 AM77.0 °F73.4 °F89 %29.71 in10.0 miVariable6.9 mphRainLight Rain
7:56 AM77.0 °F73.4 °F89 %29.72 in10.0 miSSW (200°)8.1 mphRainLight Rain
7:58 AM77.0 °F73.4 °F89 %29.69 in10.0 miSSW (200°)9.2 mph0.06 inRainLight Rain
8:08 AM77.0 °F73.4 °F89 %29.72 in10.0 miSSW (200°)6.9 mphLight Drizzle
8:10 AM77.0 °F73.4 °F89 %29.72 in10.0 miSSW (200°)8.1 mphMostly Cloudy
8:15 AM78.8 °F73.4 °F83 %29.72 in10.0 miSouth (190°)6.9 mphMostly Cloudy
8:25 AM78.8 °F73.4 °F83 %29.72 in10.0 miSouth (190°)9.2 mphMostly Cloudy
8:30 AM78.8 °F75.2 °F89 %29.72 in10.0 miSouth (190°)8.1 mphMostly Cloudy
8:35 AM78.8 °F75.2 °F89 %29.73 in10.0 miSouth (190°)13.8 mph21.9 mphMostly Cloudy
8:38 AM77.0 °F75.2 °F94 %29.73 in10.0 miSSW (210°)11.5 mph21.9 mphRainLight Rain
8:48 AM75.2 °F73.4 °F94 %29.73 in2.5 miSW (220°)10.4 mphRainLight Rain
8:53 AM77.0 °F75.2 °F94 %29.73 in5.0 miSSW (210°)8.1 mphRainLight Rain
8:58 AM77.0 °F75.2 °F94 %29.70 in9.0 miSW (220°)8.1 mph0.05 inLight Drizzle
9:00 AM77.0 °F75.2 °F94 %29.73 in10.0 miSW (220°)8.1 mphMostly Cloudy
9:05 AM77.0 °F75.2 °F94 %29.73 in10.0 miSW (220°)8.1 mphMostly Cloudy
9:58 AM83.1 °F79.5 °F89 %29.69 in10.0 miSouth (180°)9.2 mph0.00 inPartly Cloudy
10:06 AM80.6 °F77.0 °F89 %29.73 in10.0 miSouth (180°)8.1 mphLight Drizzle
10:16 AM82.4 °F77.0 °F84 %29.73 in10.0 miSouth (180°)9.2 mphScattered Clouds
10:27 AM80.6 °F77.0 °F89 %29.73 in10.0 miSSW (200°)6.9 mphRainRain
10:32 AM80.6 °F77.0 °F89 %29.73 in10.0 miSouth (190°)9.2 mphRainLight Rain
10:37 AM80.6 °F77.0 °F89 %29.73 in10.0 miSouth (180°)10.4 mphMostly Cloudy
10:42 AM80.6 °F77.0 °F89 %29.72 in10.0 miSouth (180°)11.5 mphMostly Cloudy
10:47 AM80.6 °F77.0 °F89 %29.72 in10.0 miSouth (180°)12.7 mphOvercast
10:52 AM82.4 °F77.0 °F84 %29.72 in10.0 miSouth (190°)11.5 mphMostly Cloudy
10:57 AM80.6 °F77.0 °F89 %29.72 in9.0 miSouth (190°)11.5 mphMostly Cloudy
10:58 AM80.6 °F77.0 °F89 %29.69 in9.0 miSouth (180°)11.5 mph0.01 inMostly Cloudy
11:03 AM80.6 °F77.0 °F89 %29.72 in9.0 miSouth (180°)11.5 mphScattered Clouds
11:43 AM78.8 °F77.0 °F94 %29.71 in3.0 miSW (220°)10.4 mph20.7 mphMostly Cloudy
11:46 AM78.8 °F77.0 °F94 %29.71 in2.5 miWSW (240°)11.5 mph20.7 mphRainRain
11:56 AM78.8 °F77.0 °F94 %29.70 in6.0 miSW (230°)12.7 mphRainLight Rain
11:58 AM78.8 °F77.0 °F94 %29.67 in7.0 miSW (230°)10.4 mph0.04 inMostly Cloudy
12:03 PM80.6 °F77.0 °F89 %29.70 in10.0 miSW (220°)8.1 mphMostly Cloudy
12:58 PM82.4 °F77.0 °F84 %29.64 in10.0 miSouth (190°)9.2 mph0.00 inMostly Cloudy
1:02 PM82.4 °F77.0 °F84 %29.67 in10.0 miSouth (180°)9.2 mphRain-ThunderstormLight Rain
1:07 PM80.6 °F78.8 °F94 %29.67 in6.0 miSSW (200°)9.2 mphRain-ThunderstormLight Rain
1:12 PM78.8 °F77.0 °F94 %29.67 in2.5 miWSW (240°)12.7 mph18.4 mphThunderstormMostly Cloudy
1:17 PM78.8 °F77.0 °F94 %29.67 in2.5 miWSW (250°)11.5 mph18.4 mphRain-ThunderstormLight Rain
1:18 PM78.8 °F77.0 °F94 %29.67 in3.0 miWSW (240°)12.7 mph18.4 mphRain-ThunderstormLight Rain
1:20 PM78.8 °F77.0 °F94 %29.67 in5.0 miWSW (250°)12.7 mphThunderstormMostly Cloudy
1:25 PM78.8 °F77.0 °F94 %29.67 in10.0 miWSW (250°)10.4 mphThunderstormScattered Clouds
1:58 PM82.2 °F77.5 °F86 %29.63 in10.0 miWSW (240°)11.5 mph0.01 inThunderstormScattered Clouds
2:58 PM82.4 °F78.8 °F89 %29.61 in10.0 miSouth (180°)8.1 mphScattered Clouds
3:03 PM82.4 °F78.8 °F89 %29.64 in10.0 miSouth (190°)6.9 mphMostly Cloudy
3:08 PM82.4 °F77.0 °F84 %29.64 in10.0 miSouth (190°)6.9 mphMostly Cloudy
3:28 PM78.8 °F77.0 °F94 %29.64 in10.0 miNorth (10°)4.6 mphRainLight Rain
3:43 PM78.8 °F77.0 °F94 %29.65 in5.0 miWNW (290°)8.1 mphRainHeavy Rain
3:48 PM78.8 °F77.0 °F94 %29.65 in8.0 miNW (310°)9.2 mphRainHeavy Rain
3:53 PM78.8 °F77.0 °F94 %29.65 in3.0 miNW (310°)8.1 mphRainHeavy Rain
3:58 PM78.8 °F77.0 °F94 %29.62 in1.8 miNW (320°)11.5 mph0.42 inRainLight Rain
4:03 PM77.0 °F77.0 °F100 %29.65 in2.5 miWNW (300°)10.4 mphOvercast
4:06 PM77.0 °F77.0 °F100 %29.65 in4.0 miNW (310°)9.2 mphLight Drizzle
4:11 PM78.8 °F77.0 °F94 %29.65 in10.0 miNW (310°)5.8 mphRainLight Rain
4:21 PM78.8 °F77.0 °F94 %29.66 in10.0 miNW (310°)4.6 mphRainLight Rain
4:26 PM78.8 °F77.0 °F94 %29.66 in10.0 miNW (320°)4.6 mphRainRain
4:36 PM77.0 °F71.6 °F83 %29.66 in10.0 miNW (320°)5.8 mphRainLight Rain
4:43 PM77.0 °F71.6 °F83 %29.67 in10.0 miWNW (290°)5.8 mphOvercast
4:48 PM77.0 °F71.6 °F83 %29.66 in10.0 miNW (310°)5.8 mphOvercast
4:58 PM77.0 °F71.6 °F83 %29.64 in10.0 miNW (310°)4.6 mph0.02 inScattered Clouds
5:20 PM77.0 °F71.6 °F83 %29.68 in10.0 miNW (310°)6.9 mphRainLight Rain
5:30 PM77.0 °F71.6 °F83 %29.68 in4.0 miWNW (300°)4.6 mphRainRain
5:40 PM77.0 °F71.6 °F83 %29.68 in10.0 miWNW (290°)5.8 mphRainLight Rain
5:50 PM77.0 °F71.6 °F83 %29.69 in6.0 miWNW (290°)6.9 mphHaze
5:53 PM77.0 °F71.6 °F83 %29.69 in6.0 miWest (280°)4.6 mphRainLight Rain
5:58 PM77.0 °F71.6 °F83 %29.66 in9.0 miWest (280°)5.8 mph0.16 inRainLight Rain
6:03 PM77.0 °F71.6 °F83 %29.69 in10.0 miWest (280°)5.8 mphRainLight Rain
6:08 PM77.0 °F71.6 °F83 %29.70 in8.0 miWest (270°)6.9 mphRainRain
6:13 PM77.0 °F75.2 °F94 %29.70 in3.0 miWest (260°)8.1 mphRainHeavy Rain
6:18 PM77.0 °F71.6 °F83 %29.70 in1.2 miWest (280°)4.6 mphRainLight Rain
6:23 PM77.0 °F71.6 °F83 %29.70 in1.0 miNW (310°)3.5 mphRainLight Rain
6:28 PM77.0 °F75.2 °F94 %29.70 in2.5 miNW (310°)3.5 mphRainLight Rain
6:33 PM77.0 °F75.2 °F94 %29.70 in9.0 miNW (320°)3.5 mphRainLight Rain
6:37 PM77.0 °F73.4 °F89 %29.70 in10.0 miNW (310°)2.3 mphScattered Clouds
6:58 PM77.0 °F71.6 °F83 %29.67 in10.0 miCalm0.16 inClear
7:23 PM77.0 °F71.6 °F83 %29.71 in10.0 miCalmMostly Cloudy
7:38 PM77.0 °F71.6 °F83 %29.71 in10.0 miWSW (240°)2.3 mphScattered Clouds
7:58 PM77.0 °F71.6 °F83 %29.69 in10.0 miWest (260°)2.3 mphMostly Cloudy
8:36 PM77.0 °F71.6 °F83 %29.73 in10.0 miWSW (240°)2.3 mphPartly Cloudy
8:58 PM77.0 °F71.6 °F83 %29.71 in10.0 miCalmScattered Clouds
9:58 PM77.0 °F71.6 °F83 %29.70 in10.0 miSouth (170°)6.9 mphScattered Clouds
10:58 PM77.0 °F71.6 °F83 %29.69 in10.0 miSouth (180°)4.6 mphClear
11:58 PM75.2 °F71.6 °F89 %29.67 in10.0 miESE (120°)2.3 mphClear
Hourly data recorded from PGUA, located miles away from Tamuning, Guam







STORIES FROM OUR PARTNERS